Flag for U.S.A. Weather past 2 weeks in Dallas, Texas, U.S.A.

Now
92 °F

Partly sunny.


Feels Like: 97 °F
Forecast: 79 / 94 °F
Wind: 16 mph from South

Location: Dallas Love Field

Current Time: Jun 30, 2015 at 7:53:20 PM

Latest Report: Jun 30, 2015 at 6:53 PM


Visibility: 10 mi

Pressure: 29.90 "Hg

Humidity: 47%

Dew point: 69 °F

Location of DallasLocation

Historic Weather in Dallas — Graph

°F

Dallas temperature yesterday

Maximum temperature yesterday: 96 °F (at 5:53 PM)
Minimum temperature yesterday: 78 °F (at 5:53 AM)
Average temperature yesterday: 86 °F

Past Weeks' High & Low Weather Summary

 TemperatureHumidityPressure
High96 °F (Jun 29, 5:53 PM)94% (Jun 17, 6:53 AM)30.16 "Hg (Jun 17, 6:53 AM)
Low71 °F (Jun 28, 4:53 AM)26% (Jun 28, 6:53 PM)29.66 "Hg (Jun 17, 4:53 PM)
Average84 °F64%29.97 "Hg
* Reported Jun 15 6:53 PM — Jun 30 6:53 PM, Dallas, Weather by CustomWeather, © 2015

Note: Actual official high and low records may vary slightly from our data, if they occured in-between our weather recording intervals... More about our weather records

Advertising

Dallas weather history for previous 24 hours

 ConditionsComfort  
Time TempWeatherWind HumidityBarometerVisibility
6:53 PM
Tue, Jun 30
92 °FPartly sunny.16 mph47%29.90 "Hg10 mi
5:53 PM95 °FScattered clouds.7 mph44%29.90 "Hg10 mi
4:53 PM95 °FScattered clouds.7 mph41%29.90 "Hg10 mi
3:53 PM95 °FScattered clouds.8 mph44%29.92 "Hg10 mi
2:53 PM94 °FScattered clouds.8 mph46%29.93 "Hg9 mi
1:53 PM93 °FPartly sunny.9 mph49%29.96 "Hg9 mi
12:53 PM90 °FPassing clouds.7 mph54%29.98 "Hg10 mi
11:53 AM89 °FPassing clouds.9 mph53%29.99 "Hg10 mi
10:53 AM87 °FPassing clouds.10 mph55%30.00 "Hg10 mi
9:53 AM82 °FPassing clouds.7 mph60%30.01 "Hg10 mi
8:53 AM80 °FBroken clouds.12 mph60%30.03 "Hg10 mi
7:53 AM78 °FPartly sunny.6 mph66%30.00 "Hg10 mi
6:53 AM75 °FPassing clouds.9 mph71%29.98 "Hg10 mi
5:53 AM74 °FPartly cloudy.9 mph79%29.98 "Hg10 mi
4:53 AM73 °FPassing clouds.12 mph84%29.97 "Hg10 mi
3:53 AM73 °FThunderstorms. Mostly cloudy.13 mph81%29.98 "Hg4 mi
2:57 AM78 °FThunderstorms. Overcast.17 mph58%30.03 "Hg10 mi
1:53 AM82 °FPartly cloudy.No wind63%29.96 "Hg10 mi
12:53 AM83 °FPassing clouds.5 mph63%29.96 "Hg10 mi
11:53 PM
Mon, Jun 29
84 °FPassing clouds.6 mph63%29.93 "Hg10 mi
10:53 PM86 °FPassing clouds.6 mph65%29.94 "Hg10 mi
9:53 PM88 °FPassing clouds.7 mph59%29.92 "Hg10 mi
8:53 PM90 °FScattered clouds.14 mph56%29.89 "Hg10 mi
7:53 PM93 °FScattered clouds.6 mph41%29.87 "Hg10 mi
Weather by CustomWeather, © 2015

See weather overviewHow to use our weather pages